SL-8 R/B, 1575

Orbit data source: Space-Track

SL-8 R/B, 1575 is space debris in LEO originally from a launch on Fri, 03 Sep 1965 UTC launched from the Tyuratam Missile And Space Complex (TTMTR). Debris objects in space refer to the collection of defunct objects orbiting the Earth. Examples of debris include non-operational satellites, rocket bodies, and fragments generated from explosions, collisions, or faulty payload assembly.

Loading next visibility...
Identifier
1575, 1965-070F
Orbit
LEO
Country
Flag of CISCIS
Related business
Manufacturer
Yuzhnoe
Mission
Spacecraft
Bus & Motor
S3, Unknown motor
Mass
1,434 kg wet, 1,434 kg dry
Launch date (UTC)
1965-09-03 (60 years ago)
Launch vehicle
Unknown
Launch site
Tyuratam Missile And Space Complex (TTMTR)
Object type
Payload
Rocket body
Debris
Shape & HBR
Cyl, 3.3 m
Radar Cross Section
14.646 m², Large (>1 m²)

Expand to show TLE details & history
Last TLE update: 10 hours ago

TLE from 10 hours ago
0 SL-8 R/B
1 01575U 65070F   25260.90350931 -.00000087  00000-0  65415-4 0  9992
2 01575  56.1225 134.8821 0101361  73.1180  31.4854 12.57010261756525
Epoch: 2025-09-17T21:41Z
TLE epoch observation values (Epoch: 2025-09-17T21:41:03.204Z)
Latitude
53.36821°
Longitude
-71.41666°
Altitude
1,374.998 km
Speed
7.208 km/s
True Right ascension
16h 43m 40s
True Declination
53° 12' 60"
Sunlit
Object was in daylight at epoch
Visualization orbit readout
Latitude
Unknown
Longitude
Unknown
Altitude
Unknown
Speed
Unknown
Apparent Right ascension
Unknown
Apparent Declination
Unknown
Sunlit
N/A
Visualization observer readout
Local Sidereal Time
00:51:09
Azimuth
Unknown
Elevation
Unknown
Doppler factor
Unknown
Orbital elements
Apogee altitude
1,514.319 km
Perigee altitude
1,355.927 km
Semi-major axis
7,813.26 km
Eccentricity
0.01014
Inclination
56.1225°
RAAN
134.8821°
Arg. of periapsis
73.118°
True anomaly
32.09865°
Mean anomaly
31.4854°
Eccentric anomaly
31.79136°
Mean motion
3.14264 °/min
Orbital period
114.55 mins
BSTAR
0.000065415
Loading maneuver chart data...
Computing Atmospheric mass density...
Loading historical data...
Loading historical data...
Loading historical data...
Loading historical data...
Loading historical data...
Loading historical data...
Loading historical data...
Other satellites on launch #70 in the year 1965 (1965-09-03 UTC)

Documentation

Showing up to 5 results
|